Wind_Speed
55 54 53 52 52 51 49 48 48 46 44 42 41 40 41 42 41 40 40 39 38 38 37 36 35 34 33 33 33 33 33 33 33 33 32 32 32 32
56 56 55 54 53 52 51 49 49 48 45 43 42 41 41 43 42 42 41 41 41 40 39 38 37 37 36 35 36 35 35 35 35 35 35 34 34 35
57 57 56 55 55 54 52 51 50 49 48 45 44 43 43 43 43 43 43 43 42 41 40 40 40 39 38 38 38 37 37 37 37 36 37 36 37 37
56 57 57 56 55 56 54 53 52 51 50 48 46 46 45 44 44 44 43 43 43 42 42 42 41 41 40 40 40 40 39 38 38 38 38 39 39 39
56 57 57 56 56 55 54 54 53 52 51 50 49 48 48 47 46 46 45 45 45 44 44 43 43 42 42 42 41 42 41 40 40 40 40 41 41 41
56 57 58 58 57 56 55 55 54 53 52 52 51 50 49 48 48 47 47 46 46 46 46 45 44 44 43 43 43 43 43 42 42 42 42 42 42 42
57 57 57 58 57 58 57 55 55 54 53 52 53 52 50 49 49 49 48 47 47 48 48 47 47 46 45 44 44 44 43 43 43 43 43 44 44 45
58 58 58 59 58 58 57 56 55 55 54 54 54 52 50 50 49 49 50 50 49 49 49 48 48 48 47 46 45 45 44 44 44 44 45 46 47 47
56 57 57 58 58 57 55 55 55 55 55 54 54 54 53 53 53 52 51 51 50 50 50 50 50 49 49 48 47 46 46 46 46 46 47 47 48 48
57 57 57 58 58 57 56 55 55 56 56 56 55 54 54 54 54 53 52 51 51 51 52 51 51 50 50 50 49 49 49 49 48 48 49 49 50 50
55 56 57 57 56 57 58 57 56 57 57 56 56 55 55 55 56 56 54 53 53 52 53 52 51 52 52 52 51 51 50 50 50 50 50 51 52 52
54 55 56 56 57 57 58 58 58 58 58 58 58 57 57 56 56 56 55 55 54 53 53 53 53 53 53 52 52 52 52 52 52 52 52 53 53 53
54 53 54 53 54 55 57 57 57 58 59 60 60 59 58 57 57 57 57 56 55 54 54 54 54 54 54 54 54 54 54 54 54 54 54 54 54 54
52 53 53 53 53 54 55 56 57 57 59 60 61 61 59 59 58 58 58 57 56 55 56 56 56 56 56 55 55 55 56 56 56 56 56 56 56 56
50 51 52 53 53 53 54 55 56 57 58 59 60 61 60 59 59 59 58 58 58 58 58 57 56 57 57 57 56 56 56 57 56 56 57 57 57 57
50 51 51 52 53 52 53 54 54 55 55 57 58 60 60 61 61 61 60 59 60 59 58 57 58 59 59 58 58 57 58 58 57 57 58 58 58 58
50 50 50 51 52 52 53 54 55 55 55 56 56 57 58 59 60 62 62 61 60 60 59 60 59 59 60 60 59 59 59 59 58 58 59 59 58 58
49 49 49 49 50 51 51 52 53 54 54 54 55 56 57 58 58 59 60 60 60 59 60 61 61 61 61 61 60 60 60 60 59 58 59 58 58 58
48 48 48 49 49 50 51 52 51 52 53 54 54 54 55 57 57 57 57 58 58 59 59 60 61 61 61 61 60 60 60 60 60 59 58 58 57 56
49 48 48 48 48 49 50 50 51 52 52 52 53 53 53 54 54 54 55 56 56 57 57 58 58 58 59 59 60 60 59 59 58 58 58 57 57 56
47 48 48 48 47 48 48 49 50 50 51 51 52 53 53 53 53 53 54 54 55 55 55 55 56 56 57 57 58 58 58 57 57 57 57 57 57 56
44 45 46 47 47 47 47 48 48 49 50 50 51 51 52 53 53 53 53 53 53 54 54 54 54 55 55 55 55 55 55 56 57 57 57 57 56 55
42 42 43 44 45 46 47 47 48 48 49 49 50 51 51 51 52 53 54 53 53 53 53 53 54 54 54 53 52 52 52 53 54 55 54 54 54 54
Wind_Direction
240 240 241 242 242 242 243 244 245 245 245 246 247 247 248 249 250 250 250 251 252 254 256 259 260 262 263 266 269 271 273 276 278 279 281 283 285 287
240 240 241 242 241 242 243 244 244 245 245 245 245 247 248 249 249 250 250 251 251 253 256 257 259 261 262 266 269 271 273 275 276 277 279 281 283 286
240 239 240 241 242 242 242 243 244 244 244 244 245 246 247 247 249 250 251 251 252 252 254 256 258 260 262 265 268 270 272 274 275 276 278 280 282 284
241 240 240 241 242 242 242 243 243 244 245 245 245 246 247 247 248 250 251 251 251 252 254 257 258 260 262 264 267 269 271 273 274 276 278 280 282 283
241 241 240 240 242 242 242 243 244 244 245 246 246 247 247 248 248 249 251 252 253 253 255 256 258 260 261 263 265 268 269 271 273 276 278 280 281 282
241 241 240 241 242 243 244 244 244 244 244 246 247 247 248 248 249 250 252 253 254 255 256 256 257 259 261 263 265 267 269 270 273 276 278 280 281 281
240 240 240 241 242 244 244 243 244 244 244 245 247 248 247 248 249 251 252 254 255 256 256 257 257 257 259 262 265 266 268 270 272 275 277 280 281 282
240 239 241 242 243 243 242 243 244 245 246 245 246 247 248 249 249 251 253 254 256 257 257 257 256 257 259 261 262 264 267 269 272 274 277 280 282 282
240 240 240 242 242 243 242 244 244 245 246 246 247 248 249 250 251 252 254 255 256 256 257 257 257 257 258 259 262 264 266 269 272 274 276 280 281 282
239 239 240 241 242 242 243 243 244 245 245 246 247 248 249 251 252 252 254 255 256 257 257 258 258 258 258 260 262 264 266 269 272 274 276 278 280 282
241 241 241 241 242 243 243 243 244 245 245 245 246 247 249 250 252 253 254 255 256 256 257 257 258 258 260 261 263 264 266 269 272 274 276 278 280 282
241 242 243 244 243 244 244 244 244 244 245 245 246 247 248 249 251 252 253 255 256 256 256 257 258 259 260 261 263 264 266 268 271 274 276 278 279 281
241 242 243 244 244 245 245 245 245 245 245 245 246 247 248 248 250 252 254 256 256 256 256 257 258 259 259 262 264 265 267 270 271 273 275 276 278 280
243 243 243 244 245 246 246 245 245 246 245 245 245 245 246 248 250 252 254 255 255 255 256 256 258 258 261 263 265 266 268 270 272 273 274 276 278 280
244 244 244 244 245 245 246 246 247 246 247 246 245 245 246 248 250 252 253 254 254 255 255 256 257 258 260 263 264 265 268 270 272 274 275 276 278 280
246 245 246 246 246 246 246 246 246 246 246 246 246 246 247 247 249 251 253 254 254 255 255 256 257 258 259 262 264 265 268 270 272 273 275 277 278 279
244 245 247 247 246 246 246 246 246 246 246 245 245 247 248 248 249 250 252 253 254 254 255 256 258 259 261 263 264 266 269 271 272 273 275 277 278 279
245 246 247 247 247 247 248 247 247 246 246 246 248 249 249 249 249 251 252 253 253 254 255 257 259 260 261 264 266 268 269 271 272 274 276 275 276 278
243 244 246 247 247 248 248 247 247 246 247 248 249 249 250 250 250 251 251 252 253 254 255 258 259 260 262 264 267 268 270 272 273 274 275 275 275 276
244 245 246 246 247 247 248 247 247 247 248 249 249 249 250 249 249 250 251 252 253 255 256 258 260 261 263 265 267 269 270 272 273 273 273 274 275 276
245 245 246 245 246 247 247 247 247 247 248 248 249 249 249 250 250 250 251 252 253 255 257 259 262 264 265 266 268 269 270 271 272 273 273 274 275 275
246 246 246 246 246 246 246 246 246 247 248 249 249 249 250 250 251 251 251 252 254 256 258 260 262 263 265 266 268 270 270 272 273 273 273 274 275 276
247 245 245 246 247 247 247 247 247 248 248 249 249 249 250 251 251 252 252 253 255 257 259 261 262 263 265 267 268 270 271 272 272 273 273 274 275 276
Height
5691 5696 5700 5705 5709 5713 5717 5721 5725 5729 5733 5737 5741 5744 5746 5749 5752 5755 5758 5760 5762 5765 5767 5769 5770 5772 5772 5773 5773 5774 5773 5773 5772 5772 5771 5770 5769 5767
5677 5682 5687 5691 5696 5701 5705 5709 5713 5718 5722 5726 5730 5733 5735 5738 5741 5744 5747 5750 5752 5755 5757 5759 5761 5762 5763 5764 5764 5764 5765 5764 5764 5763 5762 5761 5760 5759
5663 5668 5674 5678 5683 5688 5693 5697 5701 5706 5710 5715 5718 5721 5724 5727 5730 5733 5736 5739 5741 5744 5746 5748 5750 5752 5753 5754 5755 5755 5755 5755 5754 5754 5753 5752 5751 5750
5649 5655 5660 5665 5670 5675 5680 5685 5689 5694 5698 5703 5706 5710 5713 5716 5719 5721 5724 5727 5730 5733 5735 5737 5739 5741 5743 5743 5744 5745 5745 5745 5745 5744 5744 5743 5742 5740
5635 5641 5646 5651 5657 5662 5667 5672 5677 5681 5686 5690 5694 5698 5701 5703 5706 5709 5712 5715 5718 5721 5724 5726 5728 5730 5731 5732 5733 5734 5734 5735 5735 5734 5733 5732 5731 5729
5621 5626 5632 5637 5643 5648 5653 5658 5663 5668 5673 5677 5681 5685 5688 5691 5693 5697 5700 5703 5706 5709 5712 5714 5716 5718 5720 5721 5722 5723 5723 5723 5723 5723 5722 5721 5720 5719
5607 5613 5618 5624 5629 5634 5639 5645 5649 5654 5659 5664 5668 5672 5675 5678 5682 5685 5688 5691 5694 5696 5699 5702 5704 5707 5708 5709 5710 5711 5712 5712 5712 5712 5711 5710 5709 5707
5593 5599 5604 5610 5615 5620 5625 5630 5635 5640 5646 5650 5655 5659 5663 5666 5669 5672 5675 5678 5682 5686 5686 5689 5691 5693 5696 5697 5698 5699 5700 5700 5700 5700 5699 5698 5696 5695
5579 5585 5590 5596 5601 5606 5611 5616 5621 5626 5631 5637 5641 5646 5650 5654 5657 5659 5662 5665 5669 5671 5673 5676 5678 5680 5683 5684 5686 5687 5687 5688 5688 5687 5687 5685 5684 5682
5565 5570 5576 5582 5586 5591 5596 5601 5606 5612 5617 5622 5628 5633 5636 5638 5642 5645 5648 5652 5655 5658 5659 5663 5665 5667 5669 5671 5672 5673 5674 5674 5674 5674 5674 5672 5671 5669
5550 5556 5561 5566 5572 5576 5581 5587 5592 5597 5601 5606 5611 5616 5620 5624 5627 5630 5634 5637 5641 5644 5646 5649 5652 5654 5656 5658 5659 5660 5660 5660 5661 5660 5660 5659 5657 5655
5536 5541 5547 5552 5556 5561 5565 5571 5576 5582 5586 5591 5595 5600 5604 5609 5612 5616 5620 5623 5626 5629 5632 5635 5638 5639 5641 5644 5645 5645 5646 5646 5646 5646 5645 5644 5642 5641
5523 5528 5533 5537 5542 5546 5550 5555 5561 5566 5570 5575 5580 5585 5589 5594 5598 5602 5605 5608 5612 5615 5618 5620 5623 5624 5626 5629 5630 5631 5631 5631 5631 5631 5630 5629 5627 5626
5510 5515 5519 5524 5528 5532 5536 5541 5545 5549 5554 5558 5564 5569 5574 5579 5583 5587 5590 5593 5596 5599 5602 5604 5607 5609 5611 5613 5615 5616 5616 5616 5616 5616 5615 5614 5612 5610
5496 5501 5505 5509 5514 5518 5522 5526 5530 5534 5538 5543 5548 5553 5558 5563 5567 5571 5574 5577 5580 5583 5586 5589 5592 5594 5596 5598 5600 5601 5601 5601 5601 5600 5599 5598 5596 5595
5483 5487 5491 5495 5500 5504 5508 5511 5515 5519 5523 5528 5532 5537 5541 5546 5551 5554 5558 5561 5564 5568 5571 5573 5576 5578 5580 5582 5583 5585 5585 5585 5585 5584 5583 5582 5580 5579
5470 5474 5478 5482 5486 5490 5493 5497 5501 5505 5509 5513 5517 5521 5525 5529 5534 5538 5542 5545 5548 5552 5555 5557 5559 5561 5563 5565 5567 5568 5569 5569 5568 5568 5567 5566 5565 5563
5457 5461 5465 5469 5472 5476 5479 5483 5487 5491 5494 5498 5502 5506 5509 5513 5517 5522 5525 5528 5532 5536 5538 5541 5543 5545 5547 5549 5551 5551 5552 5552 5552 5551 5550 5550 5549 5547
5443 5447 5451 5455 5458 5462 5465 5469 5473 5477 5480 5484 5487 5491 5494 5498 5502 5506 5509 5512 5516 5519 5522 5524 5526 5528 5529 5532 5535 5535 5535 5535 5535 5534 5534 5533 5533 5532
5430 5434 5438 5441 5445 5448 5452 5455 5459 5463 5466 5470 5473 5477 5480 5483 5487 5490 5494 5497 5500 5504 5506 5508 5510 5512 5513 5516 5517 5519 5518 5517 5517 5517 5517 5516 5516 5515
5417 5421 5425 5428 5432 5435 5438 5442 5446 5449 5453 5456 5459 5463 5466 5470 5473 5476 5479 5482 5485 5488 5491 5494 5495 5496 5497 5498 5500 5502 5501 5500 5499 5499 5499 5499 5499 5499
5405 5408 5411 5415 5419 5422 5425 5429 5432 5436 5439 5442 5445 5449 5452 5456 5459 5462 5465 5468 5471 5474 5476 5478 5479 5480 5481 5482 5484 5485 5485 5484 5482 5481 5481 5481 5481 5482
5393 5396 5399 5402 5406 5409 5412 5415 5419 5422 5426 5429 5432 5435 5438 5442 5445 5448 5451 5453 5456 5459 5461 5463 5464 5465 5466 5467 5468 5468 5468 5467 5466 5466 5465 5464 5464 5464